Location: Unspecified
(0.0000°N, 0.0000°E)
Time: 09:45:12
(UTC+00:00)

ZACube-1 - Visible Passes

Search period start: 25 June 2018 00:00
Search period end: 05 July 2018 00:00
Orbit: 584 x 668 km, 97.6° (Epoch: 24 June)

Date Brightness Start Highest point End Pass type
(mag) Time Alt. Az. Time Alt. Az. Time Alt. Az.
25 Jun ? 19:48:57 16° SSW 19:52:01 36° WSW 19:56:06 10° NW visible
26 Jun ? 18:32:05 10° ESE 18:35:11 18° E 18:38:13 10° NE visible
26 Jun ? 20:08:21 12° SW 20:11:10 20° WSW 20:14:22 10° NW visible
27 Jun ? 18:50:28 11° SE 18:54:22 33° ENE 18:58:19 10° NNE visible
27 Jun ? 20:29:32 10° WSW 20:30:18 10° WSW 20:31:04 10° W visible
28 Jun ? 19:09:51 15° SSE 19:13:32 64° E 19:17:53 10° N visible
29 Jun ? 19:29:15 17° S 19:32:42 67° WSW 19:37:03 10° NNW visible
30 Jun ? 19:48:39 15° SSW 19:51:51 35° WSW 19:55:51 10° NW visible
01 Jul ? 18:31:56 10° ESE 18:35:01 18° E 18:38:01 10° NE visible
01 Jul ? 20:08:03 11° SW 20:10:59 19° WSW 20:14:06 10° WNW visible
02 Jul ? 18:50:10 10° SE 18:54:11 33° E 18:58:06 10° NNE visible
03 Jul ? 19:09:33 14° SSE 19:13:22 65° ENE 19:17:38 10° N visible
04 Jul ? 19:28:57 15° S 19:32:32 65° W 19:36:48 10° NNW visible
